Skip Page Navigation
NASA JPL Caltech
NASA Logo - Jet Propulsion Laboratory + View the NASA Portal
+ Center for Near-Earth Object Studies
JPL Home Earth Solar System Stars & Galaxies Technology
JPL Solar System Dynamics
BODIES ORBITS EPHEMERIDES TOOLS PHYSICAL DATA DISCOVERY FAQ SITE MAP
JPL Small-Body Database Browser
Search: [ help ]  
392910 (2012 VP64)
Classification: Main-belt Asteroid          SPK-ID: 2392910
Ephemeris | Orbit Diagram | Orbital Elements | Mission Design | Physical Parameters | Discovery Circumstances | Close-Approach Data ]

[ show orbit diagram ]
Orbital Elements at Epoch 2459000.5 (2020-May-31.0) TDB
Reference: JPL 16 (heliocentric ecliptic J2000)
 Element Value Uncertainty (1-sigma)   Units 
e .1287704386400464 1.057e-07  
a 2.796688297619385 3.9459e-08 au
q 2.436557518795452 2.8691e-07 au
i 12.53898348494466 1.2143e-05 deg
node 44.16749540379309 3.5745e-05 deg
peri 115.0647786671209 5.7513e-05 deg
M 135.81217181155 4.5429e-05 deg
tp 2458356.032949712111
(2018-Aug-25.53294971)
0.00021096 TDB
period 1708.301509422658
4.68
3.6154e-05
9.898e-08
d
yr
n .2107356330333435 4.46e-09 deg/d
Q 3.156819076443317 4.454e-08 au
  Orbit Determination Parameters
   # obs. used (total)      120  
   data-arc span      5551 days (15.20 yr)  
   first obs. used      2005-04-17  
   last obs. used      2020-06-28  
   planetary ephem.      DE431  
   SB-pert. ephem.      SB431-N16  
   condition code      0  
   norm. resid. RMS      .51377  
   source      ORB  
   producer      Otto Matic  
   solution date      2020-Nov-12 16:21:35  

Additional Information
 Earth MOID = 1.47369 au 
 Jupiter MOID = 1.89963 au 
 T_jup = 3.280 
[ show covariance matrix ]

Ephemeris | Orbit Diagram | Orbital Elements | Mission Design | Physical Parameters | Discovery Circumstances | Close-Approach Data ]

Physical Parameter Table
Parameter Symbol Value Units Sigma Reference Notes
absolute magnitude H 16.4   n/a MPO434458  

392910 (2012 VP64)          Discovered 2005-Apr-17 by Spacewatch at Kitt Peak
Reference: Last Updated: 2014-04-17

[ hide close-approach data ]
Close-Approach Data   ...sorted by Date/Time (TDB)
Date/Time (TDB) Time Uncertainty
(days_HH:MM)
Body Nominal Distance (au) Minimum Distance (au) Maximum Distance (au) V-relative (km/s) V-infinity (km/s) JD (TDB) Time Uncertainty (minutes) Semi-major axis (km) Semi-minor axis (km) range-LOV angle (deg) N-sigma BP Orbit Ref. Reference Modified
1904-Nov-08 09:06 00:07 Jupiter 1.97783459709176 1.97783156598903 1.97783762824261 4.16936990904278 4.06535735482242 2416792.879069899 6.87905186736268 622.672856920772 69.0938196846346 -79.4774678232518 696503.229654664 T 16 CATAB v2.0f-lin.ifort 2020-Nov-12 16:21:35 2020-Nov-12 16:21
1927-Dec-15 16:14 00:05 Jupiter 1.91107237698275 1.91107127371769 1.91107348024772 3.52406018229847 3.39596279284559 2425230.176717404 5.42129548744511 641.820912044037 36.0073722993119 -88.5327995885301 762893.033947905 T 16 CATAB v2.0f-lin.ifort 2020-Nov-12 16:21:35 2020-Nov-12 16:21
1951-Jan-15 04:46 00:04 Jupiter 1.94726631625796 1.94726505750777 1.94726757502309 2.8289908308454 2.67081045580331 2433661.698559219 4.12830539081746 719.744344612665 53.4172687160108 -84.6538705721557 1056844.88956803 T 16 CATAB v2.0f-lin.ifort 2020-Nov-12 16:21:35 2020-Nov-12 16:21
2059-Feb-02 20:36 00:03 Jupiter 1.96436717692759 1.96436611801195 1.96436823584871 4.15864848999078 4.05363665156868 2473127.358361383 2.57274425002946 398.620263692479 38.4120824584612 -86.0534783557541 1265450.628393 T 16 CATAB v2.0f-lin.ifort 2020-Nov-12 16:21:35 2020-Nov-12 16:21
2082-Mar-14 19:52 00:04 Jupiter 1.89860770598069 1.89860671393525 1.89860869803606 3.59777772376007 3.47156277028302 2481568.327937715 4.07578693651807 710.926676497319 38.0546486571853 -87.5514434299036 1234574.34124562 T 16 CATAB v2.0f-lin.ifort 2020-Nov-12 16:21:35 2020-Nov-12 16:21
2105-Apr-16 01:46 00:06 Jupiter 1.94704180556941 1.94703955715352 1.94704405416248 2.96374349323584 2.81313251546488 2490000.573592241 5.97382726874681 1181.12296050149 57.7424611508864 -83.692681005193 1157956.20274015 T 16 CATAB v2.0f-lin.ifort 2020-Nov-12 16:21:35 2020-Nov-12 16:21

Alternate Designations
 2012 VP64 = 2005 JW75 
Ephemeris | Orbit Diagram | Orbital Elements | Mission Design | Physical Parameters | Discovery Circumstances | Close-Approach Data ]
ABOUT SSD CREDITS/AWARDS PRIVACY/COPYRIGHT GLOSSARY LINKS
FirstGov 2021-Jan-20 08:21 UT
(server date/time)  
NASA Home Page
Site Manager:   Ryan S. Park
Webmaster  Alan B. Chamberlin